EW8783 Weather Reports


time (UTC)temp
C
wind
direction
speed
KPH
gust
KPH
rain 1hr
cm
rain 24hr
cm
rain mn
cm
humidity
%
barometer
mb
20260507010001 13 223 1.6 6.4 0.00 0.03 0.03 1 1006.1
20260507004556 13 224 1.6 11.3 0.00 0.03 0.03 1 1006.0
20260507003106 13 234 3.2 8.0 0.00 0.03 0.03 1 1005.9
20260507001609 13 223 1.6 6.4 0.00 0.03 0.03 1 1005.9
20260507000045 13 168 4.8 11.3 0.00 0.03 0.03 1 1006.0
20260506234540 13 178 3.2 11.3 0.00 0.03 0.03 1 1005.9
20260506233035 13 185 3.2 8.0 0.00 0.03 0.03 1 1005.9
20260506231530 13 205 3.2 8.0 0.00 0.03 0.03 1 1005.9
20260506230038 13 204 3.2 8.0 0.00 0.03 0.03 1 1006.0
20260506224522 13 169 1.6 9.7 0.00 0.03 0.03 1 1005.8
20260506223026 13 172 4.8 11.3 0.00 0.03 0.03 1 1005.9
20260506221513 13 165 6.4 14.5 0.00 0.03 0.03 1 1006.0
20260506220009 13 218 3.2 9.7 0.00 0.03 0.03 1 1006.3
20260506214504 13 208 4.8 12.9 0.00 0.03 0.03 1 1006.3
20260506213105 14 201 3.2 11.3 0.00 0.03 0.03 1 1006.4
20260506211556 14 153 3.2 14.5 0.00 0.03 0.03 1 1006.5
20260506210057 14 202 3.2 12.9 0.00 0.03 0.03 1 1006.5
20260506204550 15 162 4.8 11.3 0.00 0.03 0.03 1 1006.6
20260506203043 15 211 4.8 9.7 0.03 0.03 0.03 1 1006.8
20260506201538 15 221 3.2 11.3 0.03 0.03 0.03 1 1006.8
20260506200034 15 208 3.2 14.5 0.03 0.03 0.03 1 1006.9
20260506194529 16 219 3.2 8.0 0.00 0.00 0.00 1 1007.0
20260506193034 16 222 1.6 19.3 0.00 0.00 0.00 1 1007.2
20260506191521 17 202 3.2 9.7 0.00 0.00 0.00 10 1007.1
20260506190017 17 170 3.2 22.5 0.00 0.00 0.00 26 1007.1
20260506184511 17 159 6.4 17.7 0.00 0.00 0.00 30 1007.2
20260506183007 18 214 8.0 16.1 0.00 0.00 0.00 36 1007.4
20260506181503 18 159 8.0 19.3 0.00 0.00 0.00 39 1007.6
20260506180100 18 207 8.0 17.7 0.00 0.00 0.00 41 1007.6
20260506174554 19 190 6.4 22.5 0.00 0.00 0.00 44 1007.7
20260506173058 20 219 6.4 20.9 0.00 0.00 0.00 46 1008.2
20260506171546 19 160 6.4 14.5 0.00 0.00 0.00 45 1008.1
20260506170046 20 236 8.0 24.1 0.00 0.00 0.00 47 1007.9
20260506164551 20 229 6.4 20.9 0.00 0.00 0.00 43 1008.3
20260506163037 19 112 3.2 22.5 0.00 0.00 0.00 44 1008.4
20260506161529 19 225 6.4 12.9 0.00 0.00 0.00 42 1008.5
20260506160026 19 149 4.8 12.9 0.00 0.00 0.00 41 1008.8
20260506154520 19 196 8.0 16.1 0.00 0.00 0.00 42 1009.0
20260506153016 19 229 6.4 16.1 0.00 0.00 0.00 40 1009.2
20260506151514 19 167 4.8 12.9 0.00 0.00 0.00 38 1009.2
20260506150007 18 225 4.8 14.5 0.00 0.00 0.00 35 1009.3
20260506144502 18 159 4.8 12.9 0.00 0.00 0.00 30 1009.3
20260506143059 18 155 3.2 14.5 0.00 0.00 0.00 31 1009.2
20260506141554 18 161 4.8 12.9 0.00 0.00 0.00 34 1009.4
20260506140050 18 215 4.8 12.9 0.00 0.00 0.00 38 1009.1
20260506134544 18 144 4.8 11.3 0.00 0.00 0.00 28 1009.3
20260506133052 18 224 4.8 9.7 0.00 0.00 0.00 17 1009.9
20260506131537 17 163 4.8 12.9 0.00 0.00 0.00 6 1009.9
20260506130033 17 205 4.8 14.5 0.00 0.00 0.00 1 1010.0
20260506124527 16 246 4.8 11.3 0.00 0.00 0.00 1 1009.9
20260506123023 16 198 4.8 14.5 0.00 0.00 0.00 1 1009.8
20260506121519 15 183 6.4 11.3 0.00 0.00 0.00 1 1009.7
20260506120033 15 165 3.2 6.4 0.00 0.00 0.00 1 1010.0
20260506114510 15 220 3.2 11.3 0.00 0.00 0.00 1 1010.2
20260506113006 15 216 3.2 11.3 0.00 0.00 0.00 1 1010.4
20260506111501 14 221 3.2 11.3 0.00 0.00 0.00 1 1010.2
20260506110113 14 198 3.2 6.4 0.00 0.00 0.00 1 1010.2
20260506104611 14 215 3.2 11.3 0.00 0.00 0.00 1 1010.2
20260506103050 14 162 3.2 9.7 0.00 0.00 0.00 1 1010.1
20260506101545 14 221 1.6 6.4 0.00 0.00 0.00 1 1010.2
20260506100051 14 221 3.2 12.9 0.00 0.00 0.00 1 1010.0
20260506094535 14 203 3.2 6.4 0.00 0.00 0.00 1 1009.9
20260506093031 14 217 1.6 8.0 0.00 0.00 0.00 1 1010.0
20260506091528 14 200 1.6 6.4 0.00 0.00 0.00 1 1010.0
20260506090022 15 192 1.6 9.7 0.00 0.00 0.00 1 1010.0
20260506084536 15 207 3.2 9.7 0.00 0.00 0.00 1 1010.2
20260506083013 15 213 1.6 14.5 0.00 0.00 0.00 1 1010.3
20260506081508 15 224 3.2 12.9 0.00 0.00 0.00 1 1010.2
20260506073158 15 209 6.4 14.5 0.00 0.00 0.00 1 1010.1
20260506071551 15 217 3.2 11.3 0.00 0.00 0.00 1 1010.1
20260506061534 15 220 4.8 16.1 0.00 0.00 0.00 1 1010.1
20260506044508 14 173 3.2 9.7 0.00 0.00 0.00 1 1010.6
20260506043004 15 173 3.2 11.3 0.00 0.00 0.00 8 1010.7
20260506041609 15 186 4.8 11.3 0.00 0.00 0.00 18 1010.6
20260506040059 15 225 3.2 11.3 0.00 0.00 0.00 22 1010.5
20260506034555 15 171 3.2 9.7 0.00 0.00 0.00 22 1010.5
20260506033049 15 228 3.2 12.9 0.00 0.00 0.00 22 1010.4
20260506031545 15 163 3.2 8.0 0.00 0.00 0.00 25 1010.4
20260506030040 15 209 3.2 9.7 0.00 0.00 0.00 28 1010.4
20260506024537 15 138 3.2 8.0 0.00 0.00 0.00 32 1010.4
20260506023049 15 210 3.2 11.3 0.00 0.00 0.00 36 1010.4
20260506021541 15 134 3.2 9.7 0.00 0.00 0.00 38 1010.3
20260506020026 15 194 3.2 11.3 0.00 0.00 0.00 39 1010.3
20260506014519 15 169 4.8 9.7 0.00 0.00 0.00 39 1010.1
20260506013015 15 184 1.6 11.3 0.00 0.00 0.00 38 1010.2
20260506011509 15 212 3.2 19.3 0.00 0.00 0.00 38 1010.0